Waarnemingen

Advertentie
Mijn weer
Malmo/Sturup, Zweden (2636): temperatuur & dauwpunt: 11.07.2019 00:00:00 - 17.07.2019 00:00:00 (CEST)Malmo/Sturup, Zweden (2636): windsnelheid: 11.07.2019 00:00:00 - 17.07.2019 00:00:00 (CEST)Malmo/Sturup, Zweden (2636): windrichting: 11.07.2019 00:00:00 - 17.07.2019 00:00:00 (CEST)Malmo/Sturup, Zweden (2636): luchtdruk: 11.07.2019 00:00:00 - 17.07.2019 00:00:00 (CEST)Malmo/Sturup, Zweden (2636): zicht: 11.07.2019 00:00:00 - 17.07.2019 00:00:00 (CEST)
Datum & Tijd tt [°C] td [°C] ff [km/u] ff [kn] dd ppp [hPa] vv [km]
17.07.2019 00:00:00 12,8 11,2 11 6 WNW 1012,7 10
16.07.2019 23:00:00 14,1 11,6 13 7 NW 1012,4 10
16.07.2019 22:00:00 15,2 11,4 16 9 WNW 1012,2 10
16.07.2019 21:00:00 16,5 10,6 21 11 NW 1011,7 10
16.07.2019 20:00:00 17,3 10,2 28 15 NW 1011,4 10
16.07.2019 19:00:00 18,4 8,9 31 17 NW 1011,1 10
16.07.2019 18:00:00 20,2 10,3 29 16 NW 1010,8 10
16.07.2019 17:00:00 19,3 9,2 31 17 WNW 1010,6 10
16.07.2019 16:00:00 20,8 10,0 29 16 WNW 1010,6 10
16.07.2019 15:00:00 19,8 10,8 29 16 W 1010,4 10
16.07.2019 14:00:00 21,0 11,3 24 13 WNW 1010,3 10
16.07.2019 13:00:00 19,8 10,5 16 9 WNW 1010,5 10
16.07.2019 12:00:00 19,6 10,0 15 8 NW 1010,7 10
16.07.2019 11:00:00 18,4 9,2 15 8 NNW 1010,8 10
16.07.2019 10:00:00 16,7 9,1 13 7 WNW 1010,9 10
16.07.2019 09:00:00 15,7 8,9 8 4 WNW 1010,9 10
16.07.2019 08:00:00 15,1 10,7 8 4 WNW 1010,9 10
16.07.2019 07:00:00 12,5 11,1 5 3 W 1011,0 10
16.07.2019 06:00:00 11,4 10,6 9 5 NNW 1010,9 10
16.07.2019 05:00:00 10,7 9,9 9 5 NW 1011,0 10
16.07.2019 04:00:00 10,6 9,8 13 7 NNW 1010,9 10
16.07.2019 03:00:00 12,2 11,4 13 7 NNW 1010,8 10
16.07.2019 02:00:00 13,7 12,3 11 6 NNW 1010,7 10
16.07.2019 01:00:00 15,1 12,6 8 4 WZW 1010,1 10
16.07.2019 00:00:00 15,0 11,8 11 6 W 1010,4 10
15.07.2019 23:00:00 15,5 12,1 9 5 WZW 1010,8 10
15.07.2019 22:00:00 15,5 11,5 9 5 WZW 1010,9 10
15.07.2019 21:00:00 15,9 10,6 13 7 WZW 1011,0 10
15.07.2019 20:00:00 15,9 9,3 18 10 W 1011,2 10
15.07.2019 19:00:00 16,5 9,9 22 12 WZW 1011,5 10
15.07.2019 18:00:00 16,8 9,5 22 12 WZW 1011,6 10
15.07.2019 17:00:00 16,9 9,3 26 14 WZW 1012,0 10
15.07.2019 16:00:00 16,5 9,9 22 12 W 1012,5 10
15.07.2019 15:00:00 16,0 9,7 15 8 W 1012,8 10
15.07.2019 14:00:00 14,6 10,4 21 11 ZW 1013,1 10
15.07.2019 13:00:00 14,6 10,8 18 10 ZW 1013,4 10
15.07.2019 12:00:00 15,0 12,3 16 9 WZW 1013,5 10
15.07.2019 11:00:00 15,0 13,0 16 9 WZW 1013,6 10
15.07.2019 10:00:00 14,5 12,9 16 9 WZW 1013,8 9
15.07.2019 09:00:00 15,3 13,3 11 6 WZW 1013,7 10
15.07.2019 08:00:00 15,6 13,6 11 6 ZW 1013,6 10
15.07.2019 07:00:00 15,5 13,5 9 5 ZW 1014,0 10
15.07.2019 06:00:00 15,1 13,3 8 4 ZW 1014,2 10
15.07.2019 05:00:00 13,7 13,1 5 3 ZZW 1014,5 10
15.07.2019 04:00:00 13,4 12,9 5 3 ZZW 1014,9 10
15.07.2019 03:00:00 12,5 12,0 0 0 N 1015,2 10
15.07.2019 02:00:00 11,8 11,3 5 3 Z 1015,6 10
15.07.2019 01:00:00 11,1 10,3 5 3 ZW 1015,7 10
15.07.2019 00:00:00 13,4 11,6 9 5 ZW 1015,6 10
14.07.2019 23:00:00 12,0 10,9 4 2 WZW 1016,0 10
14.07.2019 22:00:00 15,4 12,5 13 7 WZW 1015,6 10
14.07.2019 21:00:00 16,5 12,5 9 5 WZW 1015,4 10
14.07.2019 20:00:00 17,8 12,5 18 10 W 1015,5 10
14.07.2019 19:00:00 19,0 13,0 15 8 WZW 1015,4 10
14.07.2019 18:00:00 19,7 13,2 15 8 W 1015,4 10
14.07.2019 17:00:00 20,3 14,0 16 9 WZW 1015,7 10
14.07.2019 16:00:00 19,6 14,0 18 10 W 1015,8 10
14.07.2019 15:00:00 19,4 14,6 5 3 - 1015,9 10
14.07.2019 14:00:00 16,2 14,6 9 5 ZZO 1015,8 10
14.07.2019 13:00:00 17,5 15,3 5 3 - 1015,5 10
14.07.2019 12:00:00 19,9 14,0 8 4 WNW 1015,3 10
14.07.2019 11:00:00 20,6 13,3 2 1 - 1015,3 10
14.07.2019 10:00:00 19,5 13,4 2 1 - 1015,2 10
14.07.2019 09:00:00 18,5 14,8 9 5 NNW 1015,2 10
14.07.2019 08:00:00 16,9 14,9 9 5 NNW 1014,9 10
14.07.2019 07:00:00 15,8 14,7 5 3 N 1014,8 10
14.07.2019 06:00:00 13,3 12,8 8 4 NNW 1014,9 10
14.07.2019 05:00:00 12,1 11,6 0 0 N 1014,7 10
14.07.2019 04:00:00 12,5 11,7 5 3 NNO 1014,3 10
14.07.2019 03:00:00 14,0 13,0 8 4 NNW 1014,4 10
14.07.2019 02:00:00 15,4 13,6 9 5 N 1013,9 10
14.07.2019 01:00:00 14,9 13,3 5 3 WNW 1013,8 10
14.07.2019 00:00:00 15,7 13,4 5 3 WNW 1013,6 10
13.07.2019 23:00:00 15,9 12,8 5 3 NW 1013,7 10
13.07.2019 22:00:00 17,0 12,7 13 7 NNW 1013,5 10
13.07.2019 21:00:00 19,3 13,0 22 12 NNW 1013,3 10
13.07.2019 20:00:00 21,6 12,4 22 12 NNW 1012,8 10
13.07.2019 19:00:00 22,0 13,6 21 11 NW 1012,4 10
13.07.2019 18:00:00 21,9 13,5 21 11 W 1012,2 10
13.07.2019 17:00:00 21,9 12,7 21 11 W 1012,5 10
13.07.2019 16:00:00 22,6 13,1 22 12 WNW 1012,5 10
13.07.2019 15:00:00 22,5 12,4 18 10 WNW 1012,3 10
13.07.2019 14:00:00 22,2 11,3 18 10 W 1012,4 10
13.07.2019 13:00:00 21,8 12,1 4 2 - 1012,7 10
13.07.2019 12:00:00 20,2 12,9 9 5 O 1013,0 10
13.07.2019 11:00:00 18,6 14,1 18 10 NO 1013,2 10
13.07.2019 10:00:00 18,8 14,7 8 4 N 1013,0 10
13.07.2019 09:00:00 17,1 16,6 5 3 - 1012,7 9
13.07.2019 08:00:00 14,8 14,6 0 0 N 1012,4 1,4
13.07.2019 07:00:00 13,3 13,1 0 0 N 1012,3 -
13.07.2019 06:00:00 11,4 11,2 0 0 N 1012,0 0,6
13.07.2019 05:00:00 9,2 9,1 4 2 ZO 1011,9 10
13.07.2019 04:00:00 9,6 9,3 5 3 O 1011,6 0,3
13.07.2019 03:00:00 11,1 10,9 4 2 O 1011,5 0,6
13.07.2019 02:00:00 11,6 11,1 8 4 O 1011,6 0,3
13.07.2019 01:00:00 13,6 13,1 9 5 O 1011,7 2,5
13.07.2019 00:00:00 14,3 13,7 8 4 OZO 1011,8 8
12.07.2019 23:00:00 13,1 12,3 5 3 ZZO 1011,7 10
12.07.2019 22:00:00 14,7 12,2 5 3 ZZO 1011,3 10
12.07.2019 21:00:00 17,9 12,8 5 3 ZZO 1010,8 10
12.07.2019 20:00:00 19,7 12,0 9 5 ZO 1010,3 10
12.07.2019 19:00:00 21,0 11,1 13 7 ZZO 1010,1 10
12.07.2019 18:00:00 22,2 10,7 11 6 ZZO 1010,0 10
12.07.2019 17:00:00 21,6 11,6 9 5 ZW 1010,1 10
12.07.2019 16:00:00 19,6 13,3 9 5 WNW 1010,2 10
12.07.2019 15:00:00 20,5 12,2 13 7 NO 1010,2 10
12.07.2019 14:00:00 22,9 10,7 9 5 - 1009,9 10
12.07.2019 13:00:00 21,7 10,5 9 5 WNW 1010,3 10
12.07.2019 12:00:00 21,9 10,4 11 6 W 1010,4 10
12.07.2019 11:00:00 23,2 10,9 5 3 - 1010,3 10
12.07.2019 10:00:00 21,0 10,2 4 2 - 1010,5 10
12.07.2019 09:00:00 20,2 9,4 8 4 ZW 1010,5 10
12.07.2019 08:00:00 18,3 12,1 4 2 ZW 1010,6 10
12.07.2019 07:00:00 13,8 12,0 0 0 N 1010,7 10
12.07.2019 06:00:00 12,6 10,7 5 3 O 1010,6 10
12.07.2019 05:00:00 10,5 9,6 4 2 - 1010,8 10
12.07.2019 04:00:00 10,2 9,3 5 3 O 1011,1 10
12.07.2019 03:00:00 9,4 8,6 5 3 ZZO 1011,1 10
12.07.2019 02:00:00 9,6 8,5 0 0 N 1011,2 10
12.07.2019 01:00:00 10,1 8,9 0 0 N 1011,5 10
12.07.2019 00:00:00 11,4 9,3 5 3 - 1011,6 10
11.07.2019 23:00:00 12,3 9,3 0 0 N 1011,6 10
11.07.2019 22:00:00 15,2 8,9 4 2 - 1011,5 10
11.07.2019 21:00:00 18,4 8,1 13 7 WZW 1011,3 10
11.07.2019 20:00:00 20,2 10,3 13 7 W 1011,3 10
11.07.2019 19:00:00 20,9 9,2 15 8 WZW 1011,4 10
11.07.2019 18:00:00 21,3 8,9 18 10 WZW 1011,4 10
11.07.2019 17:00:00 21,9 9,8 18 10 W 1011,5 10
11.07.2019 16:00:00 22,2 8,0 13 7 W 1011,7 10
11.07.2019 15:00:00 22,7 8,4 15 8 W 1011,9 10
11.07.2019 14:00:00 22,3 9,1 13 7 W 1012,0 10
11.07.2019 13:00:00 22,1 10,9 13 7 WNW 1012,3 10
11.07.2019 12:00:00 20,8 11,7 15 8 W 1012,5 10
11.07.2019 11:00:00 19,9 11,4 13 7 NW 1012,6 10
11.07.2019 10:00:00 19,2 10,7 15 8 WNW 1012,7 10
11.07.2019 09:00:00 17,5 11,7 13 7 NNW 1012,9 10
11.07.2019 08:00:00 15,9 11,9 16 9 NNW 1012,8 10
11.07.2019 07:00:00 14,0 11,3 15 8 NNW 1013,0 10
11.07.2019 06:00:00 12,2 10,6 15 8 NNW 1013,1 10
11.07.2019 05:00:00 10,1 9,3 11 6 NNW 1013,1 10
11.07.2019 04:00:00 12,4 11,0 16 9 NNW 1013,2 10
11.07.2019 03:00:00 13,5 10,7 15 8 NW 1013,6 10
11.07.2019 02:00:00 14,3 10,3 18 10 NW 1013,8 10
11.07.2019 01:00:00 14,4 10,2 16 9 NW 1014,0 10
11.07.2019 00:00:00 13,4 9,4 15 8 NW 1014,3 10

tt = temperatuur
td = dauwpunt
ff = windsnelheid
dd = windrichting
ppp = luchtdruk
vv = zicht

Weerstations in de omgeving